,,,PA_Meas_PMT16A,,PR_Meas_QMR101_102,,RH_Meas_QMH101,,SR_Meas_QMS101,,TA_Meas_QMH101,,GenWind,,GenWind,
date,time,status,PA,status,PR,status,RH,status,SR,status,TA,status,DirAvg,status,SpdAvg,
2009-09-04, 00:00:04,VALID,1009.45,VALID,0,VALID,93.3926,VALID,0.105969,VALID,24.5106,VALID,160,VALID,0,
2009-09-04, 00:01:04,VALID,1009.44,VALID,0,VALID,93.4765,VALID,0,VALID,24.532,VALID,160,VALID,0,
2009-09-04, 00:02:04,VALID,1009.44,VALID,0,VALID,93.6214,VALID,0.105969,VALID,24.5106,VALID,160,VALID,0,
2009-09-04, 00:03:04,VALID,1009.42,VALID,0,VALID,93.7281,VALID,0.105969,VALID,24.5106,VALID,160,VALID,0,
2009-09-04, 00:04:04,VALID,1009.42,VALID,0,VALID,93.812,VALID,0.105969,VALID,24.5106,VALID,160,VALID,0,
2009-09-04, 00:05:04,VALID,1009.4,VALID,0,VALID,93.8883,VALID,0.105969,VALID,24.4911,VALID,160,VALID,0,
2009-09-04, 00:06:04,VALID,1009.38,VALID,0,VALID,93.9493,VALID,0.105969,VALID,24.5125,VALID,160,VALID,0,
2009-09-04, 00:07:04,VALID,1009.34,VALID,0,VALID,94.0027,VALID,0.105969,VALID,24.4717,VALID,160,VALID,0,
2009-09-04, 00:08:04,VALID,1009.32,VALID,0,VALID,94.0484,VALID,0.105969,VALID,24.4717,VALID,160,VALID,0.176172,
2009-09-04, 00:09:04,VALID,1009.29,VALID,0,VALID,94.0789,VALID,0.105969,VALID,24.4522,VALID,160,VALID,0.260547,
2009-09-04, 00:10:04,VALID,1009.28,VALID,0,VALID,94.1247,VALID,0.105969,VALID,24.4522,VALID,160,VALID,0.229297,
2009-09-04, 00:11:04,VALID,1009.25,VALID,0,VALID,94.1552,VALID,0.105969,VALID,24.4522,VALID,160,VALID,0.255859,
2009-09-04, 00:12:04,VALID,1009.23,VALID,0,VALID,94.1704,VALID,0,VALID,24.4522,VALID,160,VALID,0,
2009-09-04, 00:13:04,VALID,1009.19,VALID,0,VALID,94.1857,VALID,0,VALID,24.4327,VALID,160,VALID,0,
2009-09-04, 00:14:04,VALID,1009.19,VALID,0,VALID,94.1857,VALID,0.105969,VALID,24.3937,VALID,160,VALID,0,
2009-09-04, 00:15:04,VALID,1009.18,VALID,0,VALID,94.1399,VALID,0.105969,VALID,24.3742,VALID,160,VALID,0,
2009-09-04, 00:16:04,VALID,1009.21,VALID,0,VALID,94.1781,VALID,0.105969,VALID,24.3742,VALID,160,VALID,0,
2009-09-04, 00:17:04,VALID,1009.2,VALID,0,VALID,94.2009,VALID,0.105969,VALID,24.3547,VALID,160,VALID,0,
2009-09-04, 00:18:04,VALID,1009.21,VALID,0,VALID,94.2238,VALID,0,VALID,24.3566,VALID,160,VALID,0,
2009-09-04, 00:19:04,VALID,1009.21,VALID,0,VALID,94.2467,VALID,0.105969,VALID,24.3352,VALID,160,VALID,0.387109,
2009-09-04, 00:20:04,VALID,1009.22,VALID,0,VALID,94.3153,VALID,0.105969,VALID,24.3158,VALID,160,VALID,0.386328,
2009-09-04, 00:21:04,VALID,1009.21,VALID,0,VALID,94.3611,VALID,0.105969,VALID,24.3352,VALID,160,VALID,0.362109,
2009-09-04, 00:22:04,VALID,1009.19,VALID,0,VALID,94.3839,VALID,0.105969,VALID,24.3371,VALID,160,VALID,0.348437,
2009-09-04, 00:23:04,VALID,1009.17,VALID,0,VALID,94.3992,VALID,0.105969,VALID,24.3566,VALID,160,VALID,0.307813,
2009-09-04, 00:24:04,VALID,1009.17,VALID,0,VALID,94.4297,VALID,0.105969,VALID,24.3158,VALID,160,VALID,0.352344,
2009-09-04, 00:25:04,VALID,1009.15,VALID,0,VALID,94.4373,VALID,0.105969,VALID,24.3158,VALID,160,VALID,0.392578,
2009-09-04, 00:26:04,VALID,1009.13,VALID,0,VALID,94.4602,VALID,0.105969,VALID,24.2963,VALID,160,VALID,0.283984,
2009-09-04, 00:27:04,VALID,1009.1,VALID,0,VALID,94.4602,VALID,0.105969,VALID,24.2963,VALID,160,VALID,0.416797,
2009-09-04, 00:28:04,VALID,1009.11,VALID,0,VALID,94.4755,VALID,0.105969,VALID,24.2768,VALID,160,VALID,0.333984,
2009-09-04, 00:29:04,VALID,1009.07,VALID,0,VALID,94.4831,VALID,0.105969,VALID,24.2768,VALID,160,VALID,0.351172,
2009-09-04, 00:30:04,VALID,1009.08,VALID,0,VALID,94.506,VALID,0,VALID,24.2768,VALID,160,VALID,0.201953,
2009-09-04, 00:31:04,VALID,1009.07,VALID,0,VALID,94.4907,VALID,0,VALID,24.2573,VALID,160,VALID,0.0652344,
2009-09-04, 00:32:04,VALID,1009.05,VALID,0,VALID,94.5288,VALID,0,VALID,24.2591,VALID,160,VALID,0,
2009-09-04, 00:33:04,VALID,1009.01,VALID,0,VALID,94.506,VALID,0.105969,VALID,24.2183,VALID,160,VALID,0.1125,
2009-09-04, 00:34:04,VALID,1009,VALID,0,VALID,94.4983,VALID,0.105969,VALID,24.1988,VALID,160,VALID,0.197656,
2009-09-04, 00:35:04,VALID,1008.94,VALID,0,VALID,94.5136,VALID,0.105969,VALID,24.1793,VALID,160,VALID,0.233203,
2009-09-04, 00:36:04,VALID,1008.94,VALID,0,VALID,94.4907,VALID,0.105969,VALID,24.1793,VALID,160,VALID,0.190625,
2009-09-04, 00:37:04,VALID,1008.93,VALID,0,VALID,94.506,VALID,0,VALID,24.1617,VALID,160,VALID,0.325391,
2009-09-04, 00:38:04,VALID,1008.89,VALID,0,VALID,94.4678,VALID,0,VALID,24.1227,VALID,160,VALID,0.3,
2009-09-04, 00:39:04,VALID,1008.87,VALID,0,VALID,94.4145,VALID,0,VALID,24.0837,VALID,160,VALID,0.180859,
2009-09-04, 00:40:04,VALID,1008.85,VALID,0,VALID,94.3611,VALID,0,VALID,24.0643,VALID,160,VALID,0.084375,
2009-09-04, 00:41:04,VALID,1008.84,VALID,0,VALID,94.3916,VALID,0,VALID,24.0448,VALID,160,VALID,0.101563,
2009-09-04, 00:42:04,VALID,1008.83,VALID,0,VALID,94.4297,VALID,0,VALID,24.0856,VALID,160,VALID,0.113281,
2009-09-04, 00:43:04,VALID,1008.82,VALID,0,VALID,94.4602,VALID,0,VALID,24.0661,VALID,160,VALID,0.1625,
2009-09-04, 00:44:04,VALID,1008.84,VALID,0,VALID,94.4983,VALID,0,VALID,24.0448,VALID,160,VALID,0.444922,
2009-09-04, 00:45:04,VALID,1008.87,VALID,0,VALID,94.5517,VALID,0,VALID,24.0643,VALID,160,VALID,0.374219,
2009-09-04, 00:46:04,VALID,1008.86,VALID,0,VALID,94.6127,VALID,0,VALID,24.0643,VALID,160,VALID,0.358984,
2009-09-04, 00:47:04,VALID,1008.88,VALID,0,VALID,94.6356,VALID,0,VALID,24.0856,VALID,98,VALID,0.515234,
2009-09-04, 00:48:04,VALID,1008.85,VALID,0,VALID,94.6814,VALID,0,VALID,24.0448,VALID,17,VALID,0.713672,
2009-09-04, 00:49:04,VALID,1008.85,VALID,0,VALID,94.689,VALID,0,VALID,24.0253,VALID,24,VALID,0.723828,
2009-09-04, 00:50:04,VALID,1008.89,VALID,0,VALID,94.7042,VALID,0,VALID,24.0253,VALID,18,VALID,0.468359,
2009-09-04, 00:51:04,VALID,1008.84,VALID,0,VALID,94.7042,VALID,0,VALID,24.0058,VALID,11,VALID,0.523828,
2009-09-04, 00:52:04,VALID,1008.84,VALID,0,VALID,94.7119,VALID,0,VALID,24.0058,VALID,5,VALID,0.705469,
2009-09-04, 00:53:04,VALID,1008.83,VALID,0,VALID,94.7271,VALID,0,VALID,23.9863,VALID,5,VALID,0.553125,
2009-09-04, 00:54:04,VALID,1008.86,VALID,0,VALID,94.7347,VALID,0,VALID,23.9863,VALID,4,VALID,0.691016,
2009-09-04, 00:55:04,VALID,1008.84,VALID,0,VALID,94.7576,VALID,0,VALID,23.9668,VALID,4,VALID,0.6875,
2009-09-04, 00:56:04,VALID,1008.86,VALID,0,VALID,94.7881,VALID,0,VALID,23.9863,VALID,29,VALID,0.496484,
2009-09-04, 00:57:04,VALID,1008.87,VALID,0,VALID,94.811,VALID,0,VALID,23.9473,VALID,7,VALID,0.390625,
2009-09-04, 00:58:04,VALID,1008.87,VALID,0,VALID,94.811,VALID,0,VALID,23.9473,VALID,4,VALID,0.159766,
2009-09-04, 00:59:04,VALID,1008.85,VALID,0,VALID,94.811,VALID,0,VALID,23.9278,VALID,4,VALID,0.199219,
2009-09-04, 01:00:04,VALID,1008.85,VALID,0,VALID,94.811,VALID,0,VALID,23.9084,VALID,342,VALID,0.341016,
2009-09-04, 01:01:04,VALID,1008.86,VALID,0,VALID,94.8034,VALID,0,VALID,23.9084,VALID,347,VALID,0.11875,
2009-09-04, 01:02:04,VALID,1008.85,VALID,0,VALID,94.7957,VALID,0.105969,VALID,23.8889,VALID,348,VALID,0.266016,
2009-09-04, 01:03:04,VALID,1008.83,VALID,0,VALID,94.811,VALID,0,VALID,23.8889,VALID,348,VALID,0.323047,
2009-09-04, 01:04:04,VALID,1008.81,VALID,0,VALID,94.8186,VALID,0,VALID,23.8694,VALID,30,VALID,0.509766,
2009-09-04, 01:05:04,VALID,1008.82,VALID,0,VALID,94.8415,VALID,0,VALID,23.8499,VALID,351,VALID,0.239453,
2009-09-04, 01:06:04,VALID,1008.82,VALID,0,VALID,94.8186,VALID,0,VALID,23.8304,VALID,356,VALID,0.158203,
2009-09-04, 01:07:04,VALID,1008.81,VALID,0,VALID,94.8339,VALID,0,VALID,23.8517,VALID,356,VALID,0.0175781,
2009-09-04, 01:08:04,VALID,1008.82,VALID,0,VALID,94.8186,VALID,0,VALID,23.8304,VALID,100,VALID,0.506641,
2009-09-04, 01:09:04,VALID,1008.79,VALID,0,VALID,94.8339,VALID,0,VALID,23.8322,VALID,35,VALID,0.48125,
2009-09-04, 01:10:04,VALID,1008.8,VALID,0,VALID,94.8491,VALID,0,VALID,23.8127,VALID,53,VALID,0.113281,
2009-09-04, 01:11:04,VALID,1008.76,VALID,0,VALID,94.8415,VALID,0,VALID,23.7932,VALID,51,VALID,0.26875,
2009-09-04, 01:12:04,VALID,1008.76,VALID,0,VALID,94.8796,VALID,0,VALID,23.7932,VALID,51,VALID,0.114844,
2009-09-04, 01:13:04,VALID,1008.77,VALID,0,VALID,94.872,VALID,0,VALID,23.7738,VALID,66,VALID,0.555859,
2009-09-04, 01:14:04,VALID,1008.76,VALID,0,VALID,94.872,VALID,0,VALID,23.772,VALID,85,VALID,0.478125,
2009-09-04, 01:15:04,VALID,1008.76,VALID,0,VALID,94.8949,VALID,0,VALID,23.7738,VALID,70,VALID,0.287109,
2009-09-04, 01:16:04,VALID,1008.77,VALID,0,VALID,94.9178,VALID,0,VALID,23.7525,VALID,73,VALID,0.239063,
2009-09-04, 01:17:04,VALID,1008.78,VALID,0,VALID,94.9101,VALID,0,VALID,23.7525,VALID,73,VALID,0,
2009-09-04, 01:18:04,VALID,1008.76,VALID,0,VALID,94.9483,VALID,0,VALID,23.7525,VALID,73,VALID,0.158594,
2009-09-04, 01:19:04,VALID,1008.78,VALID,0,VALID,94.933,VALID,0,VALID,23.733,VALID,34,VALID,0.224609,
2009-09-04, 01:20:04,VALID,1008.79,VALID,0,VALID,94.9406,VALID,0,VALID,23.7348,VALID,16,VALID,0.430469,
2009-09-04, 01:21:04,VALID,1008.77,VALID,0,VALID,94.9406,VALID,0,VALID,23.7135,VALID,16,VALID,0.046875,
2009-09-04, 01:22:04,VALID,1008.74,VALID,0,VALID,94.9483,VALID,0,VALID,23.7153,VALID,16,VALID,0,
2009-09-04, 01:23:04,VALID,1008.73,VALID,0,VALID,94.9483,VALID,0,VALID,23.6745,VALID,16,VALID,0.178516,
2009-09-04, 01:24:04,VALID,1008.69,VALID,0,VALID,94.9635,VALID,0,VALID,23.6958,VALID,16,VALID,0.321875,
2009-09-04, 01:25:04,VALID,1008.68,VALID,0,VALID,94.9635,VALID,0,VALID,23.6958,VALID,16,VALID,0.144922,
2009-09-04, 01:26:04,VALID,1008.68,VALID,0,VALID,94.9788,VALID,0,VALID,23.6745,VALID,20,VALID,0.305469,
2009-09-04, 01:27:04,VALID,1008.66,VALID,0,VALID,95.0016,VALID,0,VALID,23.6763,VALID,20,VALID,0,
2009-09-04, 01:28:04,VALID,1008.65,VALID,0,VALID,95.0169,VALID,0,VALID,23.6568,VALID,20,VALID,0.150391,
2009-09-04, 01:29:04,VALID,1008.67,VALID,0,VALID,95.0016,VALID,0,VALID,23.6356,VALID,20,VALID,0.199609,
2009-09-04, 01:30:04,VALID,1008.7,VALID,0,VALID,95.0169,VALID,0,VALID,23.6161,VALID,20,VALID,0.0339844,
2009-09-04, 01:31:04,VALID,1008.73,VALID,0,VALID,95.0245,VALID,0,VALID,23.6161,VALID,20,VALID,0.0132813,
2009-09-04, 01:32:04,VALID,1008.71,VALID,0,VALID,95.0169,VALID,0,VALID,23.6356,VALID,20,VALID,0.178906,
2009-09-04, 01:33:04,VALID,1008.73,VALID,0,VALID,95.0474,VALID,0,VALID,23.655,VALID,20,VALID,0.296484,
2009-09-04, 01:34:04,VALID,1008.74,VALID,0,VALID,95.0626,VALID,0,VALID,23.6161,VALID,20,VALID,0.258984,
2009-09-04, 01:35:04,VALID,1008.73,VALID,0,VALID,95.0779,VALID,0,VALID,23.6763,VALID,17,VALID,0.115625,
2009-09-04, 01:36:04,VALID,1008.75,VALID,0,VALID,95.0931,VALID,0,VALID,23.6568,VALID,86,VALID,0.479297,
2009-09-04, 01:37:04,VALID,1008.71,VALID,0,VALID,95.1084,VALID,0,VALID,23.6161,VALID,101,VALID,0.435156,
2009-09-04, 01:38:04,VALID,1008.73,VALID,0,VALID,95.0931,VALID,0,VALID,23.6568,VALID,52,VALID,0.807422,
2009-09-04, 01:39:04,VALID,1008.72,VALID,0,VALID,95.116,VALID,0,VALID,23.6568,VALID,76,VALID,0.483594,
2009-09-04, 01:40:04,VALID,1008.75,VALID,0,VALID,95.1313,VALID,0,VALID,23.6356,VALID,70,VALID,0.709766,
2009-09-04, 01:41:04,VALID,1008.72,VALID,0,VALID,95.1542,VALID,0,VALID,23.655,VALID,70,VALID,0.276563,
2009-09-04, 01:42:04,VALID,1008.74,VALID,0,VALID,95.1465,VALID,0,VALID,23.6356,VALID,70,VALID,0.00585938,
2009-09-04, 01:43:04,VALID,1008.75,VALID,0,VALID,95.1618,VALID,0,VALID,23.6568,VALID,352,VALID,0.189844,
2009-09-04, 01:44:04,VALID,1008.74,VALID,0,VALID,95.177,VALID,0,VALID,23.655,VALID,332,VALID,0.233594,
2009-09-04, 01:45:04,VALID,1008.74,VALID,0,VALID,95.1618,VALID,0,VALID,23.655,VALID,308,VALID,0.364062,
2009-09-04, 01:46:04,VALID,1008.78,VALID,0,VALID,95.1847,VALID,0,VALID,23.6568,VALID,308,VALID,0.192578,
2009-09-04, 01:47:04,VALID,1008.76,VALID,0,VALID,95.1618,VALID,0,VALID,23.6373,VALID,308,VALID,0.281641,
2009-09-04, 01:48:04,VALID,1008.79,VALID,0,VALID,95.1618,VALID,0,VALID,23.6373,VALID,308,VALID,0,
2009-09-04, 01:49:04,VALID,1008.77,VALID,0,VALID,95.177,VALID,0,VALID,23.5966,VALID,308,VALID,0.0535156,
2009-09-04, 01:50:04,VALID,1008.77,VALID,0,VALID,95.1465,VALID,0,VALID,23.5966,VALID,308,VALID,0,
2009-09-04, 01:51:04,VALID,1008.78,VALID,0,VALID,95.1618,VALID,0,VALID,23.5966,VALID,308,VALID,0,
2009-09-04, 01:52:04,VALID,1008.77,VALID,0,VALID,95.1542,VALID,0,VALID,23.5753,VALID,308,VALID,0,
2009-09-04, 01:53:04,VALID,1008.76,VALID,0,VALID,95.1618,VALID,0,VALID,23.5966,VALID,308,VALID,0,
2009-09-04, 01:54:04,VALID,1008.74,VALID,0,VALID,95.1542,VALID,0,VALID,23.5771,VALID,308,VALID,0,
2009-09-04, 01:55:04,VALID,1008.71,VALID,0,VALID,95.177,VALID,0,VALID,23.5771,VALID,308,VALID,0,
2009-09-04, 01:56:04,VALID,1008.71,VALID,0,VALID,95.1618,VALID,0,VALID,23.5576,VALID,308,VALID,0,
2009-09-04, 01:57:04,VALID,1008.68,VALID,0,VALID,95.1542,VALID,0,VALID,23.5789,VALID,308,VALID,0.0382813,
2009-09-04, 01:58:04,VALID,1008.68,VALID,0,VALID,95.1542,VALID,0,VALID,23.5381,VALID,308,VALID,0,
2009-09-04, 01:59:04,VALID,1008.7,VALID,0,VALID,95.1694,VALID,0,VALID,23.5381,VALID,308,VALID,0,
2009-09-04, 02:00:04,VALID,1008.69,VALID,0,VALID,95.1618,VALID,0,VALID,23.5381,VALID,308,VALID,0,
2009-09-04, 02:01:04,VALID,1008.65,VALID,0,VALID,95.1694,VALID,0,VALID,23.5381,VALID,308,VALID,0,
2009-09-04, 02:02:04,VALID,1008.65,VALID,0,VALID,95.177,VALID,0,VALID,23.5186,VALID,308,VALID,0,
2009-09-04, 02:03:04,VALID,1008.63,VALID,0,VALID,95.1923,VALID,0,VALID,23.4992,VALID,308,VALID,0,
2009-09-04, 02:04:04,VALID,1008.65,VALID,0,VALID,95.1923,VALID,0,VALID,23.4992,VALID,308,VALID,0,
2009-09-04, 02:05:04,VALID,1008.65,VALID,0,VALID,95.1999,VALID,0,VALID,23.4797,VALID,308,VALID,0,
2009-09-04, 02:06:04,VALID,1008.62,VALID,0,VALID,95.2152,VALID,0,VALID,23.4797,VALID,308,VALID,0,
2009-09-04, 02:07:04,VALID,1008.64,VALID,0,VALID,95.2075,VALID,0,VALID,23.5009,VALID,308,VALID,0,
2009-09-04, 02:08:04,VALID,1008.62,VALID,0,VALID,95.2228,VALID,0,VALID,23.4797,VALID,308,VALID,0,
2009-09-04, 02:09:04,VALID,1008.59,VALID,0,VALID,95.2304,VALID,0,VALID,23.4992,VALID,308,VALID,0,
2009-09-04, 02:10:04,VALID,1008.6,VALID,0,VALID,95.2304,VALID,0,VALID,23.4797,VALID,308,VALID,0,
2009-09-04, 02:11:04,VALID,1008.61,VALID,0,VALID,95.2457,VALID,0,VALID,23.4797,VALID,308,VALID,0,
2009-09-04, 02:12:04,VALID,1008.62,VALID,0,VALID,95.238,VALID,0,VALID,23.4602,VALID,308,VALID,0,
2009-09-04, 02:13:04,VALID,1008.64,VALID,0,VALID,95.238,VALID,0,VALID,23.4602,VALID,308,VALID,0.0558594,
2009-09-04, 02:14:04,VALID,1008.66,VALID,0,VALID,95.2609,VALID,0,VALID,23.4407,VALID,308,VALID,0,
2009-09-04, 02:15:04,VALID,1008.69,VALID,0,VALID,95.2457,VALID,0,VALID,23.4407,VALID,308,VALID,0,
2009-09-04, 02:16:04,VALID,1008.69,VALID,0,VALID,95.2533,VALID,0,VALID,23.4407,VALID,308,VALID,0,
2009-09-04, 02:17:04,VALID,1008.67,VALID,0,VALID,95.2609,VALID,0,VALID,23.4407,VALID,308,VALID,0.197656,
2009-09-04, 02:18:04,VALID,1008.67,VALID,0,VALID,95.2685,VALID,0,VALID,23.4407,VALID,308,VALID,0.158594,
2009-09-04, 02:19:04,VALID,1008.68,VALID,0,VALID,95.2762,VALID,0,VALID,23.4212,VALID,308,VALID,0.2125,
2009-09-04, 02:20:04,VALID,1008.68,VALID,0,VALID,95.2914,VALID,0,VALID,23.423,VALID,308,VALID,0.122266,
2009-09-04, 02:21:04,VALID,1008.69,VALID,0,VALID,95.3219,VALID,0,VALID,23.4017,VALID,308,VALID,0.333594,
2009-09-04, 02:22:04,VALID,1008.69,VALID,0,VALID,95.2914,VALID,0,VALID,23.4017,VALID,308,VALID,0.174609,
2009-09-04, 02:23:04,VALID,1008.68,VALID,0,VALID,95.3067,VALID,0,VALID,23.3823,VALID,308,VALID,0.0472656,
2009-09-04, 02:24:04,VALID,1008.69,VALID,0,VALID,95.299,VALID,0,VALID,23.3823,VALID,308,VALID,0,
2009-09-04, 02:25:04,VALID,1008.67,VALID,0,VALID,95.3295,VALID,0,VALID,23.3823,VALID,308,VALID,0,
2009-09-04, 02:26:04,VALID,1008.67,VALID,0,VALID,95.3295,VALID,0,VALID,23.3823,VALID,308,VALID,0,
2009-09-04, 02:27:04,VALID,1008.64,VALID,0,VALID,95.3295,VALID,0,VALID,23.3628,VALID,308,VALID,0,
2009-09-04, 02:28:04,VALID,1008.63,VALID,0,VALID,95.3219,VALID,0,VALID,23.3628,VALID,308,VALID,0,
2009-09-04, 02:29:04,VALID,1008.62,VALID,0,VALID,95.3219,VALID,0,VALID,23.3628,VALID,308,VALID,0,
2009-09-04, 02:30:04,VALID,1008.63,VALID,0,VALID,95.3295,VALID,0,VALID,23.3433,VALID,308,VALID,0,
2009-09-04, 02:31:04,VALID,1008.62,VALID,0,VALID,95.3448,VALID,0,VALID,23.3433,VALID,308,VALID,0,
2009-09-04, 02:32:04,VALID,1008.63,VALID,0,VALID,95.3524,VALID,0,VALID,23.3238,VALID,308,VALID,0,
2009-09-04, 02:33:04,VALID,1008.61,VALID,0,VALID,95.3372,VALID,0,VALID,23.3451,VALID,308,VALID,0,
2009-09-04, 02:34:04,VALID,1008.62,VALID,0,VALID,95.3372,VALID,0,VALID,23.3238,VALID,308,VALID,0.162891,
2009-09-04, 02:35:04,VALID,1008.65,VALID,0,VALID,95.3219,VALID,0,VALID,23.3238,VALID,308,VALID,0.221875,
2009-09-04, 02:36:04,VALID,1008.66,VALID,0,VALID,95.3448,VALID,0,VALID,23.3256,VALID,308,VALID,0.214844,
2009-09-04, 02:37:04,VALID,1008.66,VALID,0,VALID,95.3677,VALID,0,VALID,23.3043,VALID,308,VALID,0.347656,
2009-09-04, 02:38:04,VALID,1008.68,VALID,0,VALID,95.3905,VALID,0,VALID,23.2848,VALID,317,VALID,0.343359,
2009-09-04, 02:39:04,VALID,1008.69,VALID,0,VALID,95.3753,VALID,0,VALID,23.2654,VALID,317,VALID,0.296484,
2009-09-04, 02:40:04,VALID,1008.68,VALID,0,VALID,95.3829,VALID,0,VALID,23.2654,VALID,339,VALID,0.294141,
2009-09-04, 02:41:04,VALID,1008.7,VALID,0,VALID,95.3829,VALID,0,VALID,23.2654,VALID,339,VALID,0.196094,
2009-09-04, 02:42:04,VALID,1008.65,VALID,0,VALID,95.3982,VALID,0,VALID,23.2459,VALID,340,VALID,0.2375,
2009-09-04, 02:43:04,VALID,1008.65,VALID,0,VALID,95.3905,VALID,0,VALID,23.2671,VALID,62,VALID,0.209375,
2009-09-04, 02:44:04,VALID,1008.63,VALID,0,VALID,95.3753,VALID,0,VALID,23.2459,VALID,62,VALID,0.103906,
2009-09-04, 02:45:04,VALID,1008.63,VALID,0,VALID,95.3677,VALID,0,VALID,23.2654,VALID,62,VALID,0,
2009-09-04, 02:46:04,VALID,1008.59,VALID,0,VALID,95.3905,VALID,0,VALID,23.2848,VALID,62,VALID,0,
2009-09-04, 02:47:04,VALID,1008.59,VALID,0,VALID,95.3905,VALID,0,VALID,23.3061,VALID,62,VALID,0,
2009-09-04, 02:48:04,VALID,1008.59,VALID,0,VALID,95.3905,VALID,0,VALID,23.2848,VALID,62,VALID,0,
2009-09-04, 02:49:04,VALID,1008.6,VALID,0,VALID,95.4211,VALID,0,VALID,23.3061,VALID,62,VALID,0,
2009-09-04, 02:50:04,VALID,1008.6,VALID,0,VALID,95.4211,VALID,0,VALID,23.3061,VALID,62,VALID,0,
2009-09-04, 02:51:04,VALID,1008.61,VALID,0,VALID,95.4134,VALID,0,VALID,23.2848,VALID,62,VALID,0.112891,
2009-09-04, 02:52:04,VALID,1008.62,VALID,0,VALID,95.4134,VALID,0,VALID,23.2848,VALID,62,VALID,0.0121094,
2009-09-04, 02:53:04,VALID,1008.61,VALID,0,VALID,95.4134,VALID,0,VALID,23.2654,VALID,62,VALID,0,
2009-09-04, 02:54:04,VALID,1008.6,VALID,0,VALID,95.4134,VALID,0,VALID,23.2866,VALID,62,VALID,0.225391,
2009-09-04, 02:55:04,VALID,1008.6,VALID,0,VALID,95.3982,VALID,0,VALID,23.2848,VALID,62,VALID,0.0121094,
2009-09-04, 02:56:04,VALID,1008.6,VALID,0,VALID,95.4287,VALID,0,VALID,23.3061,VALID,62,VALID,0.0234375,
2009-09-04, 02:57:04,VALID,1008.59,VALID,0,VALID,95.4363,VALID,0,VALID,23.2848,VALID,62,VALID,0,
2009-09-04, 02:58:04,VALID,1008.58,VALID,0,VALID,95.4287,VALID,0,VALID,23.2848,VALID,62,VALID,0,
2009-09-04, 02:59:04,VALID,1008.56,VALID,0,VALID,95.4439,VALID,0,VALID,23.3061,VALID,62,VALID,0,
2009-09-04, 03:00:04,VALID,1008.56,VALID,0,VALID,95.4287,VALID,0,VALID,23.2654,VALID,62,VALID,0,
2009-09-04, 03:01:04,VALID,1008.57,VALID,0,VALID,95.4439,VALID,0,VALID,23.2654,VALID,62,VALID,0,
2009-09-04, 03:02:04,VALID,1008.55,VALID,0,VALID,95.4516,VALID,0,VALID,23.2654,VALID,62,VALID,0,
2009-09-04, 03:03:04,VALID,1008.51,VALID,0,VALID,95.4516,VALID,0,VALID,23.2441,VALID,62,VALID,0,
2009-09-04, 03:04:04,VALID,1008.54,VALID,0,VALID,95.4668,VALID,0,VALID,23.2441,VALID,62,VALID,0,
2009-09-04, 03:05:04,VALID,1008.55,VALID,0,VALID,95.4287,VALID,0,VALID,23.2654,VALID,62,VALID,0,
2009-09-04, 03:06:04,VALID,1008.54,VALID,0,VALID,95.4287,VALID,0,VALID,23.2264,VALID,62,VALID,0,
2009-09-04, 03:07:04,VALID,1008.54,VALID,0,VALID,95.4439,VALID,0,VALID,23.2459,VALID,62,VALID,0,
2009-09-04, 03:08:04,VALID,1008.57,VALID,0,VALID,95.4516,VALID,0,VALID,23.2476,VALID,62,VALID,0,
2009-09-04, 03:09:04,VALID,1008.55,VALID,0,VALID,95.4592,VALID,0,VALID,23.2264,VALID,62,VALID,0,
2009-09-04, 03:10:04,VALID,1008.53,VALID,0,VALID,95.4592,VALID,0,VALID,23.2476,VALID,62,VALID,0,
2009-09-04, 03:11:04,VALID,1008.52,VALID,0,VALID,95.4439,VALID,0,VALID,23.2264,VALID,62,VALID,0,
2009-09-04, 03:12:04,VALID,1008.49,VALID,0,VALID,95.4516,VALID,0,VALID,23.2264,VALID,62,VALID,0,
2009-09-04, 03:13:04,VALID,1008.5,VALID,0,VALID,95.4668,VALID,0,VALID,23.2264,VALID,62,VALID,0,
2009-09-04, 03:14:04,VALID,1008.46,VALID,0,VALID,95.4668,VALID,0,VALID,23.2476,VALID,62,VALID,0,
2009-09-04, 03:15:04,VALID,1008.48,VALID,0,VALID,95.4668,VALID,0,VALID,23.2264,VALID,62,VALID,0,
2009-09-04, 03:16:04,VALID,1008.49,VALID,0,VALID,95.4744,VALID,0,VALID,23.2264,VALID,62,VALID,0,
2009-09-04, 03:17:04,VALID,1008.49,VALID,0,VALID,95.4592,VALID,0,VALID,23.2264,VALID,62,VALID,0,
2009-09-04, 03:18:04,VALID,1008.47,VALID,0,VALID,95.4744,VALID,0,VALID,23.2459,VALID,62,VALID,0,
2009-09-04, 03:19:04,VALID,1008.5,VALID,0,VALID,95.4516,VALID,0,VALID,23.2671,VALID,62,VALID,0.0386719,
2009-09-04, 03:20:04,VALID,1008.47,VALID,0,VALID,95.4592,VALID,0,VALID,23.2654,VALID,62,VALID,0,
2009-09-04, 03:21:04,VALID,1008.44,VALID,0,VALID,95.4668,VALID,0,VALID,23.2459,VALID,62,VALID,0,
2009-09-04, 03:22:04,VALID,1008.42,VALID,0,VALID,95.4821,VALID,0,VALID,23.2654,VALID,62,VALID,0,
2009-09-04, 03:23:04,VALID,1008.43,VALID,0,VALID,95.4821,VALID,0,VALID,23.2459,VALID,62,VALID,0,
2009-09-04, 03:24:04,VALID,1008.43,VALID,0,VALID,95.4973,VALID,0,VALID,23.2459,VALID,62,VALID,0,
2009-09-04, 03:25:04,VALID,1008.43,VALID,0,VALID,95.4897,VALID,0,VALID,23.2264,VALID,62,VALID,0,
2009-09-04, 03:26:04,VALID,1008.43,VALID,0,VALID,95.4897,VALID,0,VALID,23.2671,VALID,62,VALID,0.0679687,
2009-09-04, 03:27:04,VALID,1008.42,VALID,0,VALID,95.4973,VALID,0,VALID,23.2264,VALID,62,VALID,0.207813,
2009-09-04, 03:28:04,VALID,1008.42,VALID,0,VALID,95.4821,VALID,0,VALID,23.2069,VALID,62,VALID,0.205859,
2009-09-04, 03:29:04,VALID,1008.44,VALID,0,VALID,95.4821,VALID,0,VALID,23.2069,VALID,62,VALID,0.0195313,
2009-09-04, 03:30:04,VALID,1008.41,VALID,0,VALID,95.5049,VALID,0,VALID,23.1874,VALID,62,VALID,0,
2009-09-04, 03:31:04,VALID,1008.42,VALID,0,VALID,95.5049,VALID,0,VALID,23.1874,VALID,62,VALID,0.117578,
2009-09-04, 03:32:04,VALID,1008.4,VALID,0,VALID,95.5049,VALID,0,VALID,23.2087,VALID,62,VALID,0.0988281,
2009-09-04, 03:33:04,VALID,1008.39,VALID,0,VALID,95.4973,VALID,0,VALID,23.1874,VALID,62,VALID,0,
2009-09-04, 03:34:04,VALID,1008.37,VALID,0,VALID,95.4973,VALID,0,VALID,23.1874,VALID,62,VALID,0,
2009-09-04, 03:35:04,VALID,1008.38,VALID,0,VALID,95.4973,VALID,0,VALID,23.1874,VALID,62,VALID,0,
2009-09-04, 03:36:04,VALID,1008.37,VALID,0,VALID,95.4973,VALID,0,VALID,23.1892,VALID,62,VALID,0,
2009-09-04, 03:37:04,VALID,1008.39,VALID,0,VALID,95.4897,VALID,0,VALID,23.1892,VALID,62,VALID,0,
2009-09-04, 03:38:04,VALID,1008.38,VALID,0,VALID,95.4897,VALID,0,VALID,23.2282,VALID,62,VALID,0,
2009-09-04, 03:39:04,VALID,1008.4,VALID,0,VALID,95.5202,VALID,0,VALID,23.1874,VALID,62,VALID,0,
2009-09-04, 03:40:04,VALID,1008.41,VALID,0,VALID,95.5049,VALID,0,VALID,23.1874,VALID,62,VALID,0,
2009-09-04, 03:41:04,VALID,1008.4,VALID,0,VALID,95.5126,VALID,0,VALID,23.1874,VALID,62,VALID,0,
2009-09-04, 03:42:04,VALID,1008.42,VALID,0,VALID,95.5202,VALID,0,VALID,23.1874,VALID,62,VALID,0,
2009-09-04, 03:43:04,VALID,1008.4,VALID,0,VALID,95.5126,VALID,0,VALID,23.1679,VALID,62,VALID,0,
2009-09-04, 03:44:04,VALID,1008.37,VALID,0,VALID,95.5354,VALID,0,VALID,23.1874,VALID,62,VALID,0.065625,
2009-09-04, 03:45:04,VALID,1008.35,VALID,0,VALID,95.5202,VALID,0,VALID,23.1485,VALID,62,VALID,0,
2009-09-04, 03:46:04,VALID,1008.35,VALID,0,VALID,95.5202,VALID,0,VALID,23.129,VALID,62,VALID,0,
2009-09-04, 03:47:04,VALID,1008.33,VALID,0,VALID,95.5431,VALID,0,VALID,23.129,VALID,62,VALID,0.149609,
2009-09-04, 03:48:04,VALID,1008.3,VALID,0,VALID,95.5354,VALID,0,VALID,23.129,VALID,62,VALID,0,
2009-09-04, 03:49:04,VALID,1008.3,VALID,0,VALID,95.5354,VALID,0,VALID,23.1502,VALID,62,VALID,0,
2009-09-04, 03:50:04,VALID,1008.31,VALID,0,VALID,95.5202,VALID,0,VALID,23.129,VALID,62,VALID,0,